| time (UTC) | temp F | wind direction | speed knots | gust knots | rain 1hr in | rain 24hr in | rain mn in | humidity % | barometer mb |
| 20260510174223 | 64 | 16 | 6.1 | 7.8 | 0.00 | 0.00 | 0.00 | 26 | 1021.5 |
| 20260510173719 | 64 | 308 | 5.2 | 7.0 | 0.00 | 0.00 | 0.00 | 26 | 1021.5 |
| 20260510173215 | 63 | 331 | 7.8 | 8.7 | 0.00 | 0.00 | 0.00 | 27 | 1021.4 |
| 20260510172710 | 64 | 320 | 5.2 | 7.8 | 0.00 | 0.00 | 0.00 | 26 | 1021.5 |
| 20260510172207 | 63 | 12 | 5.2 | 7.0 | 0.00 | 0.00 | 0.00 | 26 | 1021.4 |
| 20260510171703 | 62 | 303 | 6.1 | 7.8 | 0.00 | 0.00 | 0.00 | 26 | 1021.5 |
| 20260510171200 | 62 | 306 | 8.7 | 11.3 | 0.00 | 0.00 | 0.00 | 26 | 1021.6 |
| 20260510170657 | 63 | 306 | 5.2 | 6.1 | 0.00 | 0.00 | 0.00 | 27 | 1021.3 |
| 20260510170153 | 64 | 318 | 3.5 | 6.1 | 0.00 | 0.00 | 0.00 | 27 | 1021.6 |
| 20260510165650 | 62 | 334 | 5.2 | 7.0 | 0.00 | 0.00 | 0.00 | 27 | 1021.5 |
| 20260510165145 | 62 | 6 | 4.3 | 6.1 | 0.00 | 0.00 | 0.00 | 27 | 1021.7 |
| 20260510164643 | 62 | 275 | 2.6 | 6.1 | 0.00 | 0.00 | 0.00 | 27 | 1021.7 |
| 20260510164140 | 62 | 294 | 5.2 | 7.0 | 0.00 | 0.00 | 0.00 | 27 | 1021.5 |
| 20260510163635 | 62 | 19 | 8.7 | 11.3 | 0.00 | 0.00 | 0.00 | 26 | 1021.7 |
| 20260510163131 | 62 | 5 | 9.6 | 9.6 | 0.00 | 0.00 | 0.00 | 28 | 1021.9 |
| 20260510162625 | 62 | 338 | 3.5 | 5.2 | 0.00 | 0.00 | 0.00 | 28 | 1021.7 |
| 20260510162123 | 62 | 281 | 3.5 | 3.5 | 0.00 | 0.00 | 0.00 | 28 | 1021.7 |
| 20260510161618 | 62 | 336 | 7.8 | 9.6 | 0.00 | 0.00 | 0.00 | 28 | 1021.4 |
| 20260510161115 | 60 | 337 | 1.7 | 2.6 | 0.00 | 0.00 | 0.00 | 29 | 1021.5 |
| 20260510160612 | 62 | 0 | 3.5 | 5.2 | 0.00 | 0.00 | 0.00 | 30 | 1021.5 |
| 20260510160112 | 61 | 351 | 3.5 | 5.2 | 0.00 | 0.00 | 0.00 | 28 | 1021.3 |
| 20260510155609 | 60 | 338 | 8.7 | 9.6 | 0.00 | 0.00 | 0.00 | 29 | 1021.5 |
| 20260510155105 | 60 | 0 | 3.5 | 6.1 | 0.00 | 0.00 | 0.00 | 28 | 1021.3 |
| 20260510154600 | 60 | 359 | 2.6 | 6.1 | 0.00 | 0.00 | 0.00 | 28 | 1021.2 |
| 20260510154056 | 61 | 349 | 7.8 | 11.3 | 0.00 | 0.00 | 0.00 | 29 | 1021.4 |
| 20260510153552 | 61 | 343 | 7.8 | 11.3 | 0.00 | 0.00 | 0.00 | 29 | 1021.1 |
| 20260510153049 | 60 | 282 | 2.6 | 6.1 | 0.00 | 0.00 | 0.00 | 30 | 1021.1 |
| 20260510152545 | 60 | 286 | 7.0 | 7.8 | 0.00 | 0.00 | 0.00 | 31 | 1021.0 |
| 20260510152042 | 60 | 334 | 6.1 | 7.0 | 0.00 | 0.00 | 0.00 | 30 | 1020.8 |
| 20260510151538 | 60 | 355 | 0.9 | 1.7 | 0.00 | 0.00 | 0.00 | 32 | 1021.0 |
| 20260510151036 | 60 | 53 | 4.3 | 5.2 | 0.00 | 0.00 | 0.00 | 32 | 1020.9 |
| 20260510150531 | 59 | 326 | 7.8 | 8.7 | 0.00 | 0.00 | 0.00 | 32 | 1020.9 |
| 20260510150027 | 60 | 20 | 4.3 | 6.1 | 0.00 | 0.00 | 0.00 | 32 | 1020.9 |
| 20260510145524 | 60 | 326 | 1.7 | 2.6 | 0.00 | 0.00 | 0.00 | 34 | 1020.7 |
| 20260510145020 | 59 | 286 | 1.7 | 2.6 | 0.00 | 0.00 | 0.00 | 35 | 1020.8 |
| 20260510144517 | 59 | 21 | 1.7 | 1.7 | 0.00 | 0.00 | 0.00 | 35 | 1020.8 |
| 20260510144013 | 59 | 313 | 2.6 | 3.5 | 0.00 | 0.00 | 0.00 | 35 | 1020.8 |
| 20260510143509 | 58 | 310 | 3.5 | 5.2 | 0.00 | 0.00 | 0.00 | 34 | 1020.8 |
| 20260510143005 | 59 | 207 | 1.7 | 1.7 | 0.00 | 0.00 | 0.00 | 35 | 1020.9 |
| 20260510142502 | 59 | 334 | 2.6 | 3.5 | 0.00 | 0.00 | 0.00 | 35 | 1020.9 |
| 20260510141959 | 58 | 325 | 0.9 | 0.9 | 0.00 | 0.00 | 0.00 | 40 | 1020.9 |
| 20260510141455 | 57 | 345 | 0.9 | 0.9 | 0.00 | 0.00 | 0.00 | 40 | 1020.7 |
| 20260510140953 | 57 | 4 | 3.5 | 3.5 | 0.00 | 0.00 | 0.00 | 40 | 1020.8 |
| 20260510140449 | 56 | 344 | 1.7 | 1.7 | 0.00 | 0.00 | 0.00 | 40 | 1020.9 |
| 20260510135948 | 57 | 341 | 3.5 | 5.2 | 0.00 | 0.00 | 0.00 | 42 | 1020.7 |
| 20260510135444 | 56 | 349 | 1.7 | 1.7 | 0.00 | 0.00 | 0.00 | 42 | 1020.7 |
| 20260510134941 | 57 | 8 | 0.9 | 0.9 | 0.00 | 0.00 | 0.00 | 42 | 1020.7 |
| 20260510134438 | 55 | 337 | 0.9 | 0.9 | 0.00 | 0.00 | 0.00 | 42 | 1020.8 |
| 20260510133935 | 54 | 19 | 1.7 | 1.7 | 0.00 | 0.00 | 0.00 | 44 | 1020.8 |
| 20260510133431 | 53 | 346 | 0.9 | 0.9 | 0.00 | 0.00 | 0.00 | 45 | 1020.7 |
| 20260510132926 | 52 | 289 | 0.9 | 1.7 | 0.00 | 0.00 | 0.00 | 46 | 1020.8 |
| 20260510132424 | 52 | 318 | 0.9 | 0.9 | 0.00 | 0.00 | 0.00 | 47 | 1020.8 |
| 20260510131921 | 51 | 338 | 1.7 | 1.7 | 0.00 | 0.00 | 0.00 | 48 | 1020.8 |
| 20260510131418 | 51 | 330 | 1.7 | 1.7 | 0.00 | 0.00 | 0.00 | 48 | 1020.5 |
| 20260510130915 | 51 | 349 | 1.7 | 2.6 | 0.00 | 0.00 | 0.00 | 48 | 1020.6 |
| 20260510130412 | 50 | 348 | 2.6 | 3.5 | 0.00 | 0.00 | 0.00 | 48 | 1020.6 |
| 20260510125908 | 49 | 355 | 1.7 | 1.7 | 0.00 | 0.00 | 0.00 | 49 | 1020.7 |
| 20260510125404 | 49 | 340 | 2.6 | 2.6 | 0.00 | 0.00 | 0.00 | 51 | 1020.6 |
| 20260510124901 | 49 | 352 | 2.6 | 2.6 | 0.00 | 0.00 | 0.00 | 51 | 1020.4 |
| 20260510124358 | 48 | 334 | 1.7 | 1.7 | 0.00 | 0.00 | 0.00 | 53 | 1020.3 |
| 20260510123854 | 47 | 357 | 1.7 | 1.7 | 0.00 | 0.00 | 0.00 | 54 | 1020.2 |
| 20260510123349 | 47 | 20 | 4.3 | 5.2 | 0.00 | 0.00 | 0.00 | 54 | 1020.2 |
| 20260510122846 | 47 | 8 | 1.7 | 2.6 | 0.00 | 0.00 | 0.00 | 54 | 1020.2 |
| 20260510122341 | 46 | 345 | 2.6 | 3.5 | 0.00 | 0.00 | 0.00 | 55 | 1020.0 |
| 20260510121838 | 46 | 355 | 3.5 | 3.5 | 0.00 | 0.00 | 0.00 | 56 | 1019.9 |
| 20260510121336 | 45 | 340 | 1.7 | 1.7 | 0.00 | 0.00 | 0.00 | 58 | 1019.7 |
| 20260510120833 | 45 | 2 | 1.7 | 2.6 | 0.00 | 0.00 | 0.00 | 58 | 1019.8 |
| 20260510120330 | 44 | 340 | 1.7 | 2.6 | 0.00 | 0.00 | 0.00 | 59 | 1019.6 |
| 20260510115825 | 44 | 326 | 1.7 | 2.6 | 0.00 | 0.00 | 0.00 | 60 | 1019.6 |
| 20260510115323 | 44 | 7 | 1.7 | 2.6 | 0.00 | 0.00 | 0.00 | 61 | 1019.3 |
| 20260510114819 | 44 | 338 | 1.7 | 1.7 | 0.00 | 0.00 | 0.00 | 62 | 1019.3 |
| 20260510114316 | 43 | 329 | 0.9 | 0.9 | 0.00 | 0.00 | 0.00 | 63 | 1019.4 |
| 20260510113811 | 42 | 338 | 0.9 | 0.9 | 0.00 | 0.00 | 0.00 | 65 | 1019.5 |
| 20260510113308 | 42 | 350 | 1.7 | 1.7 | 0.00 | 0.00 | 0.00 | 66 | 1019.4 |
| 20260510112805 | 42 | 339 | 0.9 | 0.9 | 0.00 | 0.00 | 0.00 | 67 | 1019.1 |
| 20260510112305 | 41 | 346 | 0.9 | 0.9 | 0.00 | 0.00 | 0.00 | 67 | 1019.1 |
| 20260510111757 | 41 | 322 | 0.9 | 1.7 | 0.00 | 0.00 | 0.00 | 68 | 1019.3 |
| 20260510111254 | 41 | 342 | 0.9 | 1.7 | 0.00 | 0.00 | 0.00 | 69 | 1019.0 |
| 20260510110753 | 41 | 322 | 0.9 | 0.9 | 0.00 | 0.00 | 0.00 | 70 | 1019.1 |
| 20260510110252 | 41 | 315 | 0.9 | 1.7 | 0.00 | 0.00 | 0.00 | 70 | 1018.9 |
| 20260510105752 | 40 | 327 | 0.9 | 0.9 | 0.00 | 0.00 | 0.00 | 70 | 1018.9 |
| 20260510105246 | 40 | 322 | 1.7 | 1.7 | 0.00 | 0.00 | 0.00 | 71 | 1019.0 |
| 20260510104743 | 40 | 336 | 1.7 | 1.7 | 0.00 | 0.00 | 0.00 | 72 | 1018.7 |
| 20260510104241 | 40 | 336 | 1.7 | 1.7 | 0.00 | 0.00 | 0.00 | 73 | 1018.7 |
| 20260510103737 | 40 | 346 | 1.7 | 1.7 | 0.00 | 0.00 | 0.00 | 74 | 1018.6 |
| 20260510103234 | 40 | 338 | 1.7 | 1.7 | 0.00 | 0.00 | 0.00 | 74 | 1018.6 |
| 20260510102734 | 40 | 340 | 1.7 | 1.7 | 0.00 | 0.00 | 0.00 | 74 | 1018.4 |
| 20260510102230 | 40 | 335 | 1.7 | 1.7 | 0.00 | 0.00 | 0.00 | 74 | 1018.3 |
| 20260510101728 | 40 | 338 | 2.6 | 2.6 | 0.00 | 0.00 | 0.00 | 75 | 1018.2 |
| 20260510101226 | 40 | 337 | 1.7 | 1.7 | 0.00 | 0.00 | 0.00 | 76 | 1018.3 |
| 20260510100721 | 40 | 319 | 1.7 | 1.7 | 0.00 | 0.00 | 0.00 | 77 | 1018.1 |
| 20260510100220 | 39 | 336 | 1.7 | 1.7 | 0.00 | 0.00 | 0.00 | 81 | 1018.2 |
| 20260510095715 | 40 | 346 | 2.6 | 2.6 | 0.00 | 0.00 | 0.00 | 82 | 1018.3 |
| 20260510095211 | 40 | 336 | 0.0 | 0.9 | 0.00 | 0.00 | 0.00 | 82 | 1018.2 |
| 20260510094709 | 40 | 335 | 0.9 | 0.9 | 0.00 | 0.00 | 0.00 | 81 | 1018.0 |
| 20260510094205 | 40 | 336 | 0.9 | 0.9 | 0.00 | 0.00 | 0.00 | 81 | 1018.0 |
| 20260510093700 | 40 | 331 | 0.0 | 0.0 | 0.00 | 0.00 | 0.00 | 80 | 1018.0 |
| 20260510093158 | 41 | 330 | 0.0 | 0.0 | 0.00 | 0.00 | 0.00 | 80 | 1018.0 |
| 20260510092654 | 41 | 330 | 0.0 | 0.0 | 0.00 | 0.00 | 0.00 | 78 | 1017.8 |
| 20260510092150 | 41 | 329 | 0.0 | 0.0 | 0.00 | 0.00 | 0.00 | 76 | 1017.8 |
| 20260510091646 | 42 | 330 | 0.0 | 0.9 | 0.00 | 0.00 | 0.00 | 74 | 1017.8 |
| 20260510091142 | 42 | 336 | 0.9 | 0.9 | 0.00 | 0.00 | 0.00 | 70 | 1017.8 |
| 20260510090639 | 43 | 341 | 0.9 | 0.9 | 0.00 | 0.00 | 0.00 | 68 | 1017.8 |
| 20260510090136 | 43 | 340 | 0.9 | 1.7 | 0.00 | 0.00 | 0.00 | 67 | 1017.9 |
| 20260510085631 | 43 | 335 | 0.0 | 0.0 | 0.00 | 0.00 | 0.00 | 66 | 1017.7 |
| 20260510085126 | 44 | 324 | 0.0 | 0.0 | 0.00 | 0.00 | 0.00 | 65 | 1017.8 |
| 20260510084623 | 44 | 319 | 0.0 | 0.0 | 0.00 | 0.00 | 0.00 | 64 | 1017.8 |
| 20260510084121 | 44 | 318 | 0.0 | 0.0 | 0.00 | 0.00 | 0.00 | 62 | 1017.8 |
| 20260510083616 | 44 | 320 | 0.0 | 0.0 | 0.00 | 0.00 | 0.00 | 62 | 1017.7 |
| 20260510083113 | 45 | 323 | 0.0 | 0.0 | 0.00 | 0.00 | 0.00 | 62 | 1017.3 |
| 20260510082609 | 45 | 319 | 0.9 | 0.9 | 0.00 | 0.00 | 0.00 | 62 | 1017.1 |
| 20260510082105 | 45 | 316 | 0.9 | 0.9 | 0.00 | 0.00 | 0.00 | 62 | 1017.2 |
| 20260510081600 | 45 | 316 | 1.7 | 1.7 | 0.00 | 0.00 | 0.00 | 62 | 1016.9 |
| 20260510081056 | 45 | 313 | 0.9 | 0.9 | 0.00 | 0.00 | 0.00 | 61 | 1016.9 |
| 20260510080555 | 46 | 320 | 1.7 | 1.7 | 0.00 | 0.00 | 0.00 | 60 | 1016.8 |
| 20260510080052 | 46 | 321 | 0.9 | 0.9 | 0.00 | 0.00 | 0.00 | 59 | 1016.7 |
| 20260510075550 | 46 | 323 | 0.9 | 1.7 | 0.00 | 0.00 | 0.00 | 60 | 1016.8 |
| 20260510075046 | 46 | 323 | 1.7 | 1.7 | 0.00 | 0.00 | 0.00 | 60 | 1016.7 |
| 20260510074544 | 45 | 315 | 1.7 | 1.7 | 0.00 | 0.00 | 0.00 | 60 | 1016.8 |
| 20260510074039 | 46 | 0 | 0.0 | 0.0 | 0.00 | 0.00 | 0.00 | 60 | 1016.4 |
| 20260510073535 | 46 | 335 | 1.7 | 2.6 | 0.00 | 0.00 | 0.00 | 59 | 1016.3 |
| 20260510073033 | 46 | 320 | 1.7 | 1.7 | 0.00 | 0.00 | 0.00 | 60 | 1016.5 |
| 20260510072529 | 46 | 333 | 1.7 | 2.6 | 0.00 | 0.00 | 0.00 | 59 | 1016.5 |
| 20260510072025 | 46 | 342 | 1.7 | 1.7 | 0.00 | 0.00 | 0.00 | 60 | 1016.3 |
| 20260510071521 | 46 | 331 | 1.7 | 1.7 | 0.00 | 0.00 | 0.00 | 59 | 1016.3 |
| 20260510071020 | 46 | 336 | 1.7 | 2.6 | 0.00 | 0.00 | 0.00 | 58 | 1016.3 |
| 20260510070516 | 47 | 350 | 2.6 | 2.6 | 0.00 | 0.00 | 0.00 | 58 | 1016.2 |
| 20260510070013 | 47 | 331 | 2.6 | 2.6 | 0.00 | 0.00 | 0.00 | 57 | 1016.2 |
| 20260510065509 | 47 | 319 | 1.7 | 1.7 | 0.00 | 0.00 | 0.00 | 56 | 1016.4 |
| 20260510065005 | 47 | 330 | 2.6 | 2.6 | 0.00 | 0.00 | 0.00 | 57 | 1016.2 |
| 20260510064502 | 47 | 325 | 2.6 | 2.6 | 0.00 | 0.00 | 0.00 | 56 | 1016.0 |
| 20260510063959 | 47 | 310 | 2.6 | 2.6 | 0.00 | 0.00 | 0.00 | 56 | 1016.2 |
| 20260510063455 | 47 | 337 | 0.9 | 0.9 | 0.00 | 0.00 | 0.00 | 57 | 1016.1 |
| 20260510062953 | 47 | 342 | 1.7 | 1.7 | 0.00 | 0.00 | 0.00 | 56 | 1015.9 |
| 20260510062448 | 47 | 353 | 1.7 | 1.7 | 0.00 | 0.00 | 0.00 | 56 | 1015.9 |
| 20260510061943 | 48 | 334 | 2.6 | 2.6 | 0.00 | 0.00 | 0.00 | 56 | 1015.9 |
| 20260510061441 | 48 | 342 | 1.7 | 1.7 | 0.00 | 0.00 | 0.00 | 56 | 1015.8 |
| 20260510060937 | 48 | 332 | 1.7 | 2.6 | 0.00 | 0.00 | 0.00 | 56 | 1015.8 |
| 20260510060434 | 48 | 355 | 1.7 | 2.6 | 0.00 | 0.00 | 0.00 | 56 | 1015.7 |
| 20260510055930 | 48 | 346 | 0.9 | 0.9 | 0.00 | 0.00 | 0.00 | 57 | 1015.7 |
| 20260510055426 | 48 | 343 | 1.7 | 1.7 | 0.00 | 0.00 | 0.00 | 55 | 1015.6 |
| 20260510054924 | 48 | 340 | 2.6 | 3.5 | 0.00 | 0.00 | 0.00 | 53 | 1015.7 |
| 20260510054419 | 49 | 321 | 0.0 | 0.9 | 0.00 | 0.00 | 0.00 | 53 | 1015.7 |
| 20260510053914 | 49 | 323 | 1.7 | 1.7 | 0.00 | 0.00 | 0.00 | 52 | 1015.6 |
| 20260510053411 | 50 | 306 | 1.7 | 1.7 | 0.00 | 0.00 | 0.00 | 51 | 1015.6 |
| 20260510052907 | 50 | 345 | 1.7 | 1.7 | 0.00 | 0.00 | 0.00 | 51 | 1015.5 |
| 20260510052403 | 50 | 316 | 0.9 | 0.9 | 0.00 | 0.00 | 0.00 | 52 | 1015.3 |
| 20260510051859 | 50 | 334 | 0.9 | 0.9 | 0.00 | 0.00 | 0.00 | 52 | 1015.1 |
| 20260510051355 | 50 | 347 | 1.7 | 1.7 | 0.00 | 0.00 | 0.00 | 51 | 1015.0 |
| 20260510050852 | 50 | 343 | 0.9 | 1.7 | 0.00 | 0.00 | 0.00 | 51 | 1015.0 |
| 20260510050349 | 50 | 334 | 1.7 | 1.7 | 0.00 | 0.00 | 0.00 | 50 | 1014.9 |
| 20260510045846 | 51 | 322 | 1.7 | 2.6 | 0.00 | 0.00 | 0.00 | 49 | 1014.7 |
| 20260510045343 | 51 | 346 | 1.7 | 1.7 | 0.00 | 0.00 | 0.00 | 47 | 1014.8 |
| 20260510044840 | 52 | 323 | 0.9 | 1.7 | 0.00 | 0.00 | 0.00 | 47 | 1014.7 |
| 20260510044337 | 52 | 322 | 1.7 | 1.7 | 0.00 | 0.00 | 0.00 | 46 | 1014.7 |
| 20260510043833 | 52 | 341 | 1.7 | 1.7 | 0.00 | 0.00 | 0.00 | 45 | 1014.6 |
| 20260510043329 | 53 | 328 | 1.7 | 1.7 | 0.00 | 0.00 | 0.00 | 45 | 1014.7 |
| 20260510042827 | 53 | 331 | 1.7 | 2.6 | 0.00 | 0.00 | 0.00 | 44 | 1014.5 |
| 20260510042323 | 53 | 324 | 1.7 | 2.6 | 0.00 | 0.00 | 0.00 | 44 | 1014.4 |
| 20260510041819 | 53 | 322 | 2.6 | 2.6 | 0.00 | 0.00 | 0.00 | 44 | 1014.4 |
| 20260510041317 | 53 | 338 | 2.6 | 2.6 | 0.00 | 0.00 | 0.00 | 43 | 1014.3 |
| 20260510040814 | 54 | 324 | 1.7 | 1.7 | 0.00 | 0.00 | 0.00 | 43 | 1014.2 |
| 20260510040310 | 54 | 330 | 1.7 | 1.7 | 0.00 | 0.00 | 0.00 | 42 | 1014.2 |
| 20260510035806 | 54 | 330 | 3.5 | 3.5 | 0.00 | 0.00 | 0.00 | 42 | 1014.1 |
| 20260510035306 | 55 | 340 | 2.6 | 2.6 | 0.00 | 0.00 | 0.00 | 42 | 1013.9 |
| 20260510034758 | 55 | 356 | 3.5 | 3.5 | 0.00 | 0.00 | 0.00 | 41 | 1013.7 |
| 20260510034256 | 55 | 339 | 3.5 | 3.5 | 0.00 | 0.00 | 0.00 | 41 | 1013.7 |
| 20260510033752 | 55 | 327 | 2.6 | 3.5 | 0.00 | 0.00 | 0.00 | 41 | 1013.7 |
| 20260510033250 | 55 | 307 | 3.5 | 3.5 | 0.00 | 0.00 | 0.00 | 41 | 1013.5 |
| 20260510032746 | 55 | 354 | 2.6 | 2.6 | 0.00 | 0.00 | 0.00 | 41 | 1013.5 |
| 20260510032242 | 56 | 341 | 1.7 | 1.7 | 0.00 | 0.00 | 0.00 | 41 | 1013.4 |
| 20260510031737 | 56 | 332 | 1.7 | 1.7 | 0.00 | 0.00 | 0.00 | 40 | 1013.3 |
| 20260510031233 | 56 | 340 | 1.7 | 2.6 | 0.00 | 0.00 | 0.00 | 40 | 1013.1 |
| 20260510030733 | 57 | 324 | 2.6 | 2.6 | 0.00 | 0.00 | 0.00 | 40 | 1013.3 |
| 20260510030231 | 57 | 352 | 2.6 | 2.6 | 0.00 | 0.00 | 0.00 | 39 | 1013.0 |
| 20260510025728 | 57 | 319 | 3.5 | 3.5 | 0.00 | 0.00 | 0.00 | 40 | 1012.9 |
| 20260510025225 | 57 | 316 | 2.6 | 3.5 | 0.00 | 0.00 | 0.00 | 40 | 1013.0 |
| 20260510024722 | 58 | 313 | 2.6 | 2.6 | 0.00 | 0.00 | 0.00 | 39 | 1012.8 |
| 20260510024219 | 58 | 319 | 2.6 | 2.6 | 0.00 | 0.00 | 0.00 | 39 | 1012.8 |
| 20260510023714 | 59 | 330 | 3.5 | 3.5 | 0.00 | 0.00 | 0.00 | 38 | 1012.7 |
| 20260510023211 | 59 | 314 | 3.5 | 3.5 | 0.00 | 0.00 | 0.00 | 38 | 1012.5 |
| 20260510022707 | 59 | 284 | 2.6 | 3.5 | 0.00 | 0.00 | 0.00 | 38 | 1012.6 |
| 20260510022202 | 59 | 338 | 2.6 | 2.6 | 0.00 | 0.00 | 0.00 | 38 | 1012.4 |
| 20260510021657 | 59 | 337 | 3.5 | 5.2 | 0.00 | 0.00 | 0.00 | 37 | 1012.3 |
| 20260510021155 | 60 | 354 | 3.5 | 3.5 | 0.00 | 0.00 | 0.00 | 38 | 1012.3 |
| 20260510020650 | 60 | 336 | 2.6 | 2.6 | 0.00 | 0.00 | 0.00 | 38 | 1012.1 |
| 20260510020145 | 60 | 331 | 2.6 | 2.6 | 0.00 | 0.00 | 0.00 | 38 | 1011.8 |
| 20260510015641 | 60 | 320 | 1.7 | 2.6 | 0.00 | 0.00 | 0.00 | 38 | 1011.7 |
| 20260510015138 | 61 | 341 | 3.5 | 3.5 | 0.00 | 0.00 | 0.00 | 37 | 1011.7 |
| 20260510014638 | 61 | 337 | 3.5 | 3.5 | 0.00 | 0.00 | 0.00 | 37 | 1011.5 |
| 20260510014136 | 61 | 327 | 4.3 | 5.2 | 0.00 | 0.00 | 0.00 | 36 | 1011.4 |
| 20260510013631 | 62 | 311 | 3.5 | 3.5 | 0.00 | 0.00 | 0.00 | 36 | 1011.2 |
| 20260510013127 | 62 | 348 | 3.5 | 3.5 | 0.00 | 0.00 | 0.00 | 36 | 1011.2 |
| 20260510012626 | 62 | 309 | 2.6 | 2.6 | 0.00 | 0.00 | 0.00 | 35 | 1011.1 |
| 20260510012123 | 63 | 330 | 3.5 | 3.5 | 0.00 | 0.00 | 0.00 | 35 | 1010.8 |
| 20260510011622 | 63 | 330 | 4.3 | 6.1 | 0.00 | 0.00 | 0.00 | 35 | 1010.6 |
| 20260510011118 | 63 | 337 | 4.3 | 5.2 | 0.00 | 0.00 | 0.00 | 34 | 1010.5 |
| 20260510010615 | 64 | 330 | 3.5 | 3.5 | 0.00 | 0.00 | 0.00 | 34 | 1010.7 |
| 20260510010112 | 64 | 319 | 3.5 | 3.5 | 0.00 | 0.00 | 0.00 | 34 | 1010.4 |
| 20260510005607 | 64 | 326 | 3.5 | 5.2 | 0.00 | 0.00 | 0.00 | 33 | 1010.4 |
| 20260510005105 | 64 | 295 | 7.0 | 7.8 | 0.00 | 0.00 | 0.00 | 33 | 1010.4 |
| 20260510004603 | 65 | 310 | 5.2 | 6.1 | 0.00 | 0.00 | 0.00 | 33 | 1010.2 |
| 20260510004101 | 65 | 328 | 7.8 | 9.6 | 0.00 | 0.00 | 0.00 | 32 | 1010.4 |
| 20260510003557 | 65 | 285 | 5.2 | 7.8 | 0.00 | 0.00 | 0.00 | 32 | 1010.1 |
| 20260510003053 | 66 | 331 | 3.5 | 7.8 | 0.00 | 0.00 | 0.00 | 32 | 1010.0 |
| 20260510002548 | 66 | 301 | 7.8 | 8.7 | 0.00 | 0.00 | 0.00 | 32 | 1009.9 |
| 20260510002046 | 66 | 19 | 5.2 | 6.1 | 0.00 | 0.00 | 0.00 | 32 | 1009.8 |
| 20260510001542 | 67 | 314 | 5.2 | 7.0 | 0.00 | 0.00 | 0.00 | 31 | 1009.7 |
| 20260510001041 | 67 | 305 | 5.2 | 7.0 | 0.00 | 0.00 | 0.00 | 31 | 1009.6 |
| 20260510000537 | 67 | 331 | 9.6 | 13.0 | 0.00 | 0.00 | 0.00 | 31 | 1009.7 |
| 20260510000034 | 67 | 350 | 6.1 | 7.8 | 0.00 | 0.00 | 0.00 | 31 | 1009.6 |
| 20260509235530 | 68 | 329 | 7.8 | 11.3 | 0.00 | 0.00 | 0.00 | 31 | 1009.5 |
| 20260509235027 | 68 | 321 | 7.8 | 11.3 | 0.00 | 0.00 | 0.00 | 32 | 1009.4 |
| 20260509234523 | 68 | 5 | 7.8 | 8.7 | 0.00 | 0.00 | 0.00 | 32 | 1009.3 |
| 20260509234021 | 68 | 345 | 10.4 | 12.2 | 0.00 | 0.00 | 0.00 | 32 | 1009.2 |
| 20260509233518 | 68 | 342 | 7.0 | 8.7 | 0.00 | 0.00 | 0.00 | 32 | 1009.1 |
| 20260509233016 | 68 | 297 | 7.8 | 9.6 | 0.00 | 0.00 | 0.00 | 32 | 1009.2 |
| 20260509232512 | 69 | 230 | 5.2 | 7.0 | 0.00 | 0.00 | 0.00 | 33 | 1009.1 |
| 20260509232009 | 69 | 334 | 5.2 | 6.1 | 0.00 | 0.00 | 0.00 | 33 | 1009.0 |
| 20260509231505 | 69 | 328 | 9.6 | 13.0 | 0.00 | 0.00 | 0.00 | 31 | 1008.8 |
| 20260509231003 | 70 | 326 | 7.8 | 13.0 | 0.00 | 0.00 | 0.00 | 31 | 1008.8 |
| 20260509230459 | 69 | 329 | 6.1 | 7.0 | 0.00 | 0.00 | 0.00 | 32 | 1008.6 |
| 20260509225956 | 70 | 335 | 11.3 | 13.9 | 0.00 | 0.00 | 0.00 | 30 | 1008.5 |
| 20260509225452 | 70 | 284 | 10.4 | 13.0 | 0.00 | 0.00 | 0.00 | 30 | 1008.3 |
| 20260509224948 | 70 | 333 | 11.3 | 13.0 | 0.00 | 0.00 | 0.00 | 29 | 1008.5 |
| 20260509224443 | 71 | 288 | 8.7 | 12.2 | 0.00 | 0.00 | 0.00 | 30 | 1008.2 |
| 20260509223941 | 71 | 270 | 8.7 | 12.2 | 0.00 | 0.00 | 0.00 | 30 | 1008.2 |
| 20260509223437 | 71 | 203 | 5.2 | 8.7 | 0.00 | 0.00 | 0.00 | 30 | 1008.1 |
| 20260509222934 | 71 | 304 | 7.8 | 8.7 | 0.00 | 0.00 | 0.00 | 30 | 1008.0 |
| 20260509222429 | 71 | 309 | 9.6 | 13.0 | 0.00 | 0.00 | 0.00 | 29 | 1007.9 |
| 20260509221926 | 71 | 340 | 9.6 | 13.0 | 0.00 | 0.00 | 0.00 | 30 | 1007.9 |
| 20260509221423 | 71 | 319 | 7.8 | 11.3 | 0.00 | 0.00 | 0.00 | 30 | 1007.8 |
| 20260509220918 | 71 | 15 | 4.3 | 6.1 | 0.00 | 0.00 | 0.00 | 30 | 1007.6 |
| 20260509220415 | 71 | 289 | 9.6 | 13.0 | 0.00 | 0.00 | 0.00 | 29 | 1007.8 |
| 20260509215911 | 72 | 325 | 13.0 | 20.0 | 0.00 | 0.00 | 0.00 | 29 | 1007.7 |
| 20260509215406 | 72 | 316 | 7.8 | 12.2 | 0.00 | 0.00 | 0.00 | 30 | 1007.5 |
| 20260509214904 | 72 | 342 | 9.6 | 12.2 | 0.00 | 0.00 | 0.00 | 31 | 1007.6 |
| 20260509214401 | 72 | 310 | 7.8 | 9.6 | 0.00 | 0.00 | 0.00 | 31 | 1007.4 |
| 20260509213858 | 72 | 326 | 6.1 | 7.8 | 0.00 | 0.00 | 0.00 | 31 | 1007.6 |
| 20260509213359 | 72 | 304 | 7.8 | 9.6 | 0.00 | 0.00 | 0.00 | 31 | 1007.4 |
| 20260509212857 | 72 | 298 | 9.6 | 13.0 | 0.00 | 0.00 | 0.00 | 30 | 1007.4 |
| 20260509212354 | 72 | 285 | 8.7 | 11.3 | 0.00 | 0.00 | 0.00 | 29 | 1007.1 |
| 20260509211850 | 73 | 312 | 10.4 | 15.6 | 0.00 | 0.00 | 0.00 | 30 | 1007.3 |
| 20260509211341 | 72 | 309 | 8.7 | 9.6 | 0.00 | 0.00 | 0.00 | 31 | 1007.2 |
| 20260509210837 | 72 | 307 | 7.8 | 9.6 | 0.00 | 0.00 | 0.00 | 31 | 1007.2 |
| 20260509210335 | 72 | 348 | 7.0 | 8.7 | 0.00 | 0.00 | 0.00 | 33 | 1007.3 |
| 20260509205834 | 73 | 292 | 7.0 | 8.7 | 0.00 | 0.00 | 0.00 | 33 | 1007.3 |
| 20260509205329 | 72 | 333 | 6.1 | 8.7 | 0.00 | 0.00 | 0.00 | 34 | 1007.2 |
| 20260509204826 | 73 | 231 | 5.2 | 7.0 | 0.00 | 0.00 | 0.00 | 34 | 1007.1 |
| 20260509204322 | 72 | 330 | 4.3 | 6.1 | 0.00 | 0.00 | 0.00 | 34 | 1007.2 |
| 20260509203819 | 73 | 248 | 11.3 | 13.9 | 0.00 | 0.00 | 0.00 | 34 | 1007.3 |
| 20260509203315 | 72 | 311 | 4.3 | 6.1 | 0.00 | 0.00 | 0.00 | 37 | 1007.1 |
| 20260509202811 | 72 | 270 | 10.4 | 13.9 | 0.00 | 0.00 | 0.00 | 38 | 1007.2 |
| 20260509202308 | 72 | 307 | 9.6 | 14.8 | 0.00 | 0.00 | 0.00 | 38 | 1007.1 |
| 20260509201806 | 72 | 275 | 3.5 | 7.0 | 0.00 | 0.00 | 0.00 | 38 | 1007.3 |
| 20260509201259 | 71 | 304 | 7.0 | 9.6 | 0.00 | 0.00 | 0.00 | 39 | 1007.1 |
| 20260509200754 | 70 | 304 | 7.0 | 9.6 | 0.00 | 0.00 | 0.00 | 40 | 1007.3 |
| 20260509200250 | 70 | 277 | 7.8 | 9.6 | 0.00 | 0.00 | 0.00 | 40 | 1007.2 |
| 20260509195747 | 70 | 305 | 7.0 | 9.6 | 0.00 | 0.00 | 0.00 | 40 | 1007.3 |
| 20260509195242 | 70 | 246 | 7.8 | 9.6 | 0.00 | 0.00 | 0.00 | 40 | 1007.2 |
| 20260509194741 | 70 | 289 | 9.6 | 12.2 | 0.00 | 0.00 | 0.00 | 40 | 1007.0 |
| 20260509194238 | 70 | 9 | 5.2 | 7.0 | 0.00 | 0.00 | 0.00 | 39 | 1007.2 |
| 20260509193735 | 71 | 303 | 9.6 | 15.6 | 0.00 | 0.00 | 0.00 | 40 | 1007.3 |
| 20260509193235 | 70 | 328 | 7.8 | 9.6 | 0.00 | 0.00 | 0.00 | 40 | 1007.2 |
| 20260509192731 | 70 | 300 | 15.6 | 19.1 | 0.00 | 0.00 | 0.00 | 39 | 1007.2 |
| 20260509192226 | 70 | 73 | 7.0 | 13.0 | 0.00 | 0.00 | 0.00 | 39 | 1007.4 |
| 20260509191722 | 71 | 294 | 8.7 | 13.9 | 0.00 | 0.00 | 0.00 | 40 | 1006.9 |
| 20260509191219 | 71 | 297 | 8.7 | 11.3 | 0.00 | 0.00 | 0.00 | 39 | 1007.1 |
| 20260509190715 | 70 | 249 | 7.0 | 11.3 | 0.00 | 0.00 | 0.00 | 40 | 1007.1 |
| 20260509190212 | 70 | 303 | 7.8 | 15.6 | 0.00 | 0.00 | 0.00 | 40 | 1007.0 |
| 20260509185710 | 70 | 324 | 6.1 | 8.7 | 0.00 | 0.00 | 0.00 | 40 | 1007.0 |
| 20260509185205 | 72 | 297 | 6.1 | 11.3 | 0.00 | 0.00 | 0.00 | 39 | 1006.9 |
| 20260509184703 | 71 | 272 | 8.7 | 11.3 | 0.00 | 0.00 | 0.00 | 38 | 1006.7 |
| 20260509184200 | 71 | 280 | 7.8 | 9.6 | 0.00 | 0.00 | 0.00 | 38 | 1006.8 |
| 20260509183656 | 71 | 253 | 6.1 | 8.7 | 0.00 | 0.00 | 0.00 | 37 | 1006.8 |
| 20260509183151 | 71 | 322 | 5.2 | 7.0 | 0.00 | 0.00 | 0.00 | 37 | 1006.8 |
| 20260509182647 | 69 | 286 | 7.0 | 9.6 | 0.00 | 0.00 | 0.00 | 36 | 1006.8 |
| 20260509182145 | 69 | 278 | 8.7 | 11.3 | 0.00 | 0.00 | 0.00 | 36 | 1006.7 |
| 20260509181643 | 69 | 325 | 6.1 | 7.8 | 0.00 | 0.00 | 0.00 | 36 | 1006.5 |
| 20260509181140 | 69 | 5 | 8.7 | 9.6 | 0.00 | 0.00 | 0.00 | 34 | 1006.6 |
| 20260509180637 | 70 | 317 | 8.7 | 12.2 | 0.00 | 0.00 | 0.00 | 33 | 1006.5 |
| 20260509180133 | 69 | 291 | 6.1 | 7.0 | 0.00 | 0.00 | 0.00 | 33 | 1006.6 |
| 20260509175629 | 69 | 314 | 12.2 | 15.6 | 0.00 | 0.00 | 0.00 | 33 | 1006.5 |
| 20260509175126 | 69 | 303 | 4.3 | 7.8 | 0.00 | 0.00 | 0.00 | 32 | 1006.7 |
| 20260509174622 | 69 | 317 | 7.0 | 11.3 | 0.00 | 0.00 | 0.00 | 33 | 1006.5 |